Massena, NY

1:00 PM EST on December 03, 2016 (GMT -0500)
Massena International-Richards

Weather History for KMSS - January, 2014

Change the Weather History Date:

Tuesday, January 7, 2014

  Actual Average Record
Temperature  
Mean Temperature 11 °F 15 °F  
Max Temperature 15 °F 24 °F 52 °F (2008)
Min Temperature 6 °F 5 °F -27 °F (1996)
Degree Days  
Heating Degree Days 54 50  
Month to date heating degree days 407 347  
Since 1 July heating degree days 3618 3446  
Cooling Degree Days 0 0  
Month to date cooling degree days 0  
Year to date cooling degree days 0  
Moisture  
Dew Point -5 °F    
Average Humidity 58    
Maximum Humidity 70    
Minimum Humidity 45    
Precipitation  
Precipitation T in 0.07 in 0.37 in (1962)
Month to date precipitation 1.06 0.53  
Year to date precipitation 1.06 0.53  
Sea Level Pressure  
Sea Level Pressure 29.81 in    
Wind  
Wind Speed 19 mph (WSW)    
Max Wind Speed 32 mph    
Max Gust Speed 41 mph    
Visibility 8 miles    
Events Snow    
T = Trace of Precipitation, MM = Missing Value Source: NWS Daily Summary

Daily Weather History Graph

Daily Weather History Graph

Search for Another Location

Airport or City:

Trip Planner

Search our weather history database for the weather conditions in past years. The results will help you decide how hot, cold, wet, or windy it might be!

Date:

Astronomy

Jan. 07, 2014 Rise Set
Actual Time 7:36 AM EST 4:34 PM EST
Civil Twilight 7:03 AM EST 5:08 PM EST
Nautical Twilight 6:26 AM EST 5:44 PM EST
Astronomical Twilight 5:51 AM EST 6:20 PM EST
Moon 11:04 AM EST (1/7) No Moon Set
Length of Visible Light 10h 04m
Length of Day
8h 57m
Waxing Crescent, 45% of the Moon is Illuminated
Jan 7
Waxing Crescent
Jan 7
First Quarter
Jan 15
Full
Jan 24
Last Quarter
Jan 30
New

Hourly Weather History & Observations

Time (EST) Temp. Windchill Dew Point Humidity Pressure Visibility Wind Dir Wind Speed Gust Speed Precip Events Conditions
12:41 AM 12.2 °F -5.3 °F 3.2 °F 67% 29.56 in 2.5 mi SW 18.4 mph 25.3 mph 0.00 in Snow Light Snow
12:50 AM 12.2 °F -3.7 °F 5.0 °F 73% 29.56 in 1.8 mi SW 15.0 mph 25.3 mph 0.00 in Snow Light Snow
12:53 AM 12.9 °F -2.2 °F 5.0 °F 71% 29.58 in 2.0 mi WSW 13.8 mph 23.0 mph 0.00 in Snow Light Snow
1:01 AM 12.2 °F -5.8 °F 5.0 °F 73% 29.57 in 1.2 mi WSW 19.6 mph 29.9 mph 0.00 in Snow Light Snow
1:16 AM 12.2 °F -3.7 °F 5.0 °F 73% 29.58 in 1.8 mi WSW 15.0 mph 25.3 mph 0.00 in Snow Light Snow
1:53 AM 12.0 °F -4.5 °F 5.0 °F 73% 29.62 in 2.0 mi WSW 16.1 mph 26.5 mph 0.00 in Snow Light Snow
2:01 AM 12.2 °F -3.7 °F 5.0 °F 73% 29.60 in 5.0 mi WSW 15.0 mph 23.0 mph 0.00 in Snow Light Snow
2:53 AM 10.9 °F -5.4 °F -2.0 °F 56% 29.65 in 10.0 mi WSW 15.0 mph 28.8 mph 0.00 in   Overcast
3:53 AM 10.0 °F -9.1 °F -6.0 °F 48% 29.67 in 10.0 mi WSW 20.7 mph 28.8 mph N/A   Overcast
4:53 AM 8.1 °F -10.2 °F -8.0 °F 48% 29.70 in 10.0 mi WSW 17.3 mph 28.8 mph N/A   Clear
5:53 AM 6.1 °F -13.3 °F -9.0 °F 50% 29.75 in 10.0 mi West 18.4 mph 29.9 mph N/A   Scattered Clouds
6:53 AM 6.1 °F -13.8 °F -9.0 °F 50% 29.79 in 10.0 mi West 19.6 mph 31.1 mph N/A   Mostly Cloudy
7:53 AM 6.1 °F -9.5 °F -5.1 °F 60% 29.81 in 10.0 mi WSW 11.5 mph 19.6 mph N/A   Overcast
8:53 AM 6.1 °F -14.3 °F -7.1 °F 55% 29.83 in 10.0 mi WSW 20.7 mph 29.9 mph N/A   Mostly Cloudy
9:53 AM 6.1 °F -13.8 °F -8.0 °F 53% 29.86 in 7.0 mi WSW 19.6 mph 33.4 mph N/A   Partly Cloudy
10:53 AM 6.1 °F -13.8 °F -11.0 °F 45% 29.87 in 8.0 mi WSW 19.6 mph 38.0 mph N/A   Partly Cloudy
11:53 AM 7.0 °F -14.9 °F -11.9 °F 42% 29.86 in 10.0 mi WSW 25.3 mph 38.0 mph N/A   Clear
12:53 PM 7.0 °F -13.6 °F -11.0 °F 44% 29.86 in 10.0 mi WSW 21.9 mph 33.4 mph N/A   Overcast
1:53 PM 8.1 °F -11.2 °F -9.9 °F 44% 29.88 in 10.0 mi WSW 19.6 mph 31.1 mph N/A   Overcast
2:53 PM 8.1 °F -11.7 °F -9.9 °F 44% 29.89 in 10.0 mi WSW 20.7 mph 34.5 mph N/A   Overcast
3:53 PM 9.0 °F -11.8 °F -9.9 °F 42% 29.91 in 10.0 mi WSW 24.2 mph 32.2 mph N/A   Clear
4:53 PM 7.0 °F -12.6 °F -9.9 °F 46% 29.94 in 10.0 mi WSW 19.6 mph 33.4 mph N/A   Clear
5:53 PM 6.1 °F -12.8 °F -9.0 °F 50% 29.96 in 10.0 mi WSW 17.3 mph 26.5 mph N/A   Clear
6:53 PM 7.0 °F -12.1 °F -5.1 °F 58% 29.98 in 10.0 mi WSW 18.4 mph 34.5 mph N/A   Clear
7:53 PM 7.0 °F -13.6 °F -7.1 °F 53% 30.02 in 10.0 mi WSW 21.9 mph 36.8 mph N/A   Mostly Cloudy
8:53 PM 7.0 °F -12.1 °F -7.1 °F 53% 30.04 in 10.0 mi WSW 18.4 mph 29.9 mph N/A   Overcast
9:53 PM 7.0 °F -13.1 °F -6.0 °F 55% 30.07 in 10.0 mi SW 20.7 mph 31.1 mph N/A   Overcast
10:53 PM 7.0 °F -11.6 °F -6.0 °F 55% 30.10 in 10.0 mi WSW 17.3 mph 27.6 mph N/A   Clear
11:53 PM 7.0 °F -10.4 °F -5.1 °F 58% 30.12 in 10.0 mi SW 15.0 mph 24.2 mph N/A   Mostly Cloudy